Время (UTC), дата Ветер
(°,м/с) 
Видим.   Явления Облачность Т
(°С)
Тd
(°С)
f(%) Тe
(°С)
Pmin
(гПа)
dP
(гПа)
Po
(мм)
O2
(г/м3)
Тmin Tmax R s Состояние
почвы
00 01.01.17 050 (СВ) 10 км    10/10 300 м 
[St]
-0.8 -2.4 89 1020  -1  762  308           
03 01.01.17 тихо ()   4000 м  дымка  10/10 200 м 
[St]
-1.1 -2.3 92 -1  1019.4  -1  762  308  -1.1      мокрый или
старый снег
50-90% 
06 01.01.17 080 (В) 0500 м  туман  ?/?  
-1.4 -2.2 94 -1  1019.5  0.2  762  309  -1.5         
09 01.01.17 тихо ()   0200 м  туман  ?/?  
-0.8 -1.5 95 -1  1019.4  -0.1  762  308           
12 01.01.17 260 (З) 0500 м  туман  ?/?  
+0.1 -0.8 94 +1  1019.1  -0.3  761  307           
15 01.01.17 260 (З) 1000 м  дымка{туман}  10/10 200 м 
[St]
-0.3 -1.2 94 -2  1020.9  1.8  763  308    +0.1       
18 01.01.17 200 (Ю) 10 км    10/10 600 м кучево-дожд. 
[Cb cap]
+1.5 -0.6 86 +2  1020.2  -0.7  762  306           
21 01.01.17 220 (ЮЗ) 10 км    9/9 600 м 
[Sc]
+3.8 +1.3 84 +5  1019.4  -0.7  762  303           
00 02.01.17 220 (ЮЗ) 10 км    9/9 600 м 
[Sc]
+4 +0.1 76 +4  1019.6  0.2  762  303           
03 02.01.17 250 (З) 10 км    9/0 средняя, верхняя 
[Ac trans|Ci fib]
+4 -0.2 74 +4  1018.7  -0.8  761  302  -0.5      мокрый или
старый снег
50-90% 
06 02.01.17 220 (ЮЗ) 10 км    8/3 1000 м верхняя 
[Sc|Ci fib]
+3.9 -1.9 66 +3  1019.4  0.7  762  303           
09 02.01.17 240 (ЮЗ) 10 км    6/4 1000 м средняя, верхняя 
[Sc|Ac trans|Ci fib]
+7.8 -1.3 53 +7  1018.7  -0.7  761  298           
12 02.01.17 220 (ЮЗ) 4{10}  10 км    8/3 600 м средняя 
[Sc|Ac cast]
+7.4 -0.9 56 +6  1018  -0.8  761  299           
15 02.01.17 220 (ЮЗ) 3{12}  10 км    10/5 1000 м средняя, верхняя 
[Sc|Ac trans|Ci fib]
+6.7 -1.4 56 +6  1018.2  0.2  761  299    +8.6       
18 02.01.17 220 (ЮЗ) 3{10}  10 км    6/6 600 м 
[Sc]
+5.5 -1.1 62 +4  1018.4  0.3  761  301           
21 02.01.17 230 (ЮЗ) 10 км    8/8 600 м 
[Sc]
+6.2 -0.1 64 +5  1018.6  0.2  761  300           
00 03.01.17 200 (Ю) 10 км    5/5 1000 м 
[Sc]
+5.7 -1.6 59 +5  1018.2  -0.4  761  301           
03 03.01.17 220 (ЮЗ) 10 км    5/5 1000 м 
[Sc]
+5.3 -1.3 62 +5  1016.9  -1.3  760  301  +5.2         
06 03.01.17 240 (ЮЗ) 10 км    8/8 600 м средняя 
[St|Ac trans]
+6.5 -0.3 62 +6  1016.8  0.1  760  299  +4.8         
09 03.01.17 200 (Ю) 4{11}  10 км    9/9 300 м 
[St]
+8.4 +0.8 59 +7  1016.3  -0.5  759  297           
12 03.01.17 220 (ЮЗ) 3{12}  10 км    9/9 600 м 
[Sc]
+8.7 +1.1 59 +8  1015  -1.2  758  296           
15 03.01.17 200 (Ю) 3{11}  10 км    9/9 600 м 
[Sc]
+6.9 -1.6 55 +6  1015.7  0.7  759  298    +9.8       
18 03.01.17 200 (Ю) 10 км  в посл. час дождь  9/9 600 м 
[Sc]
+5.9 +1.4 73 +5  1015.7  0.1  759  299           
21 03.01.17 260 (З) 4000 м  слаб. дождь  9/9 300 м средняя 
[Frnb|As op]
+4.4 +2.3 86 +4  1016  0.4  759  301           
00 04.01.17 290 (З) 10 км  {ливн. осадки, дождь}  9/9 300 м кучево-дожд. 
[Cb cap]
+1.8 -0.6 84 +1  1017.1  760  304           
03 04.01.17 260 (З) 10 км    10/10 300 м 
[St]
+1 -1.3 85 1017.4  0.3  760  305  +1       
06 04.01.17 250 (З) 1000 м  слаб. снег  10/10 100 м 
[Ns]
+0.5 -0.7 92 +1  1018.3  0.8  761  306  +0.4         
09 04.01.17 170 (Ю) 1000 м  ливневой снег  10/10 100 м кучево-дожд. 
[Cb cap]
+0.9 -0.4 91 +2  1017.8  -0.5  761  305           
12 04.01.17 170 (Ю) 10 км  {ливн. осадки, снег}  9/4 600 м средняя 
[Sc|Ac trans]
+2 -0.4 84 +3  1017.7  0.1  760  304           
15 04.01.17 080 (В) 10 км    8/5 600 м средняя 
[Sc|Ac trans]
+0.7 -0.7 90 1017.2  -0.5  760  306    +2.1     
18 04.01.17 090 (В) 10 км    10/10 300 м 
[St]
+1.5 +0.3 92 +2  1015.9  -1.3  759  304           
21 04.01.17 190 (Ю) 10 км    10/10 300 м 
[St]
+5.1 +1.9 80 +5  1014.9  -0.9  758  300           
00 05.01.17 190 (Ю) 10 км    8/8 300 м 
[St]
+6.7 +0.5 65 +7  1014  -0.9  758  298           
03 05.01.17 180 (Ю) 2{10}  10 км    5/5 1000 м 
[Sc]
+7.6 -1.8 51 +8  1012.9  -1.1  757  297  +0.6         
06 05.01.17 180 (Ю) 3{10}  10 км    10/3 1000 м верхняя 
[Sc|Ci fib]
+8.8 -4.1 40 +8  1012.7  0.1  757  296           
09 05.01.17 180 (Ю) 5-15{15}  10 км    9/0 средняя, верхняя 
[Ac trans|Ci fib]
+11.9 -4.9 30 +11  1011.6  -1.1  756  292           
12 05.01.17 180 (Ю) 4-13{15}  10 км    10/0 средняя, верхняя 
[Ac As|Ci sp]
+12.2 -5.3 29 +12  1010.2  -1.3  755  292           
15 05.01.17 200 (Ю) 3{14}  10 км    10/3 1000 м средняя, верхняя 
[Sc|Ac trans|Ci fib]
+11.7 -4.6 32 +11  1011.2  0.9  756  292    +12.6       
18 05.01.17 200 (Ю) 4{14}  10 км    10/6 1000 м средняя, верхняя 
[Sc|Ac trans|Ci fib]
+10.4 +1.3 53 +10  1013  0.9  757  294           
21 05.01.17 190 (Ю) 1{11}  10 км    10/6 1000 м верхняя 
[Sc|Ci fib]
+8.5 +3.2 69 +10  1014.2  1.1  758  296           
00 06.01.17 090 (В) 10 км    10/4 1000 м верхняя 
[Sc|Ci fib]
+8.1 +2.9 70 +9  1014.6  0.4  758  296           
03 06.01.17 090 (В) 10 км    10/6 1000 м верхняя 
[Sc|Ci fib]
+8.2 +2.6 68 +9  1014.5  0.1  758  296  +7.9         
06 06.01.17 080 (В) 10 км    10/10 1000 м 
[Sc]
+7.7 +1.2 63 +9  1015.1  0.6  759  297  +7.7         
09 06.01.17 080 (В) 10 км    10/10 1000 м 
[Sc]
+10 +0.8 53 +10  1013.4  -0.7  757  294           
12 06.01.17 080 (В) 10 км    10/8 1000 м средняя 
[Sc|Ac As]
+10.4 +2.1 56 +12  1012.4  -0.9  757  293           
15 06.01.17 090 (В) 10 км    8/4 1000 м средняя 
[Sc|Ac trans]
+9.3 +0.7 55 +10  1011.9  -0.5  756  295    +10.9       
18 06.01.17 060 (СВ) 10 км    ясно 
+6 -0 65 +7  1011.3  -0.6  756  298           
21 06.01.17 090 (В) 10 км    ясно 
+4.7 -0.6 68 +6  1010.9  -0.4  755  299           
00 07.01.17 090 (В) 10 км    ясно 
+3.6 -0.6 74 +3  1010.1  -0.9  755  300           
03 07.01.17 090 (В) 10 км    ясно 
+7.4 -1.6 53 +8  1009.1  -0.9  754  296  +2.6         
06 07.01.17 090 (В) 10 км    ясно 
+4.8 -1.5 64 +6  1009.2  0.1  754  299           
09 07.01.17 тихо ()   10 км    ясно 
+13.2 +1.2 44 +13  1007.8  -1.3  753  289           
12 07.01.17 040 (СВ) 10 км    ясно 
+17.3 +4.7 43 +19  1005.9  -1.8  752  284           
15 07.01.17 080 (В) 10 км    ясно 
+9 +3.1 66 +9  1006  752  293    +19.3       
18 07.01.17 070 (В) 10 км    9/0 средняя 
[Ac trans]
+5.5 +0.6 71 +5  1006.4  0.4  752  297           
21 07.01.17 060 (СВ) 10 км    3/0 средняя 
[Ac trans]
+2.2 -0.8 81 +2  1006.7  0.3  752  301           
00 08.01.17 090 (В) 4000 м  слаб. дождь  10/10 600 м 
[Sc]
+1.7 -1.1 82 +1  1008.2  1.5  753  302           
03 08.01.17 270 (З) 4000 м  слаб. дождь  10/10 300 м 
[Frnb|Ns]
+5.6 +3.7 88 +5  1010.6  2.5  755  298  +1.2    0.4     
06 08.01.17 300 (СЗ) 4000 м  слаб. дождь  10/10 300 м 
[Frnb|Ns]
+0.6 -0.4 93 1013.9  3.1  758  305  +0.6         
09 08.01.17 330 (СЗ) 2000 м  слаб. ливневой снег{дождь}  10/10 200 м кучево-дожд. 
[Cb cap]
+1.4 -0.2 89 +2  1014.2  0.4  758  304           
12 08.01.17 060 (СВ) 2000 м  слаб. ливневой снег{дождь}  10/10 300 м кучево-дожд. 
[Cb cap]
+1.1 -0.2 91 +2  1014.1  758  304           
15 08.01.17 030 (СВ) 4000 м  в посл. час дождь со снегом{ливн. осадки}  10/10 200 м 
[Frnb|Ns]
+1.2 -0.2 90 +2  1014.3  0.1  758  304    +5.6     
18 08.01.17 030 (СВ) 10 км  {ливн. осадки, снег}  10/10 300 м 
[Frnb]
+1.9 +0.2 88 +3  1013.2  -1  757  303           
21 08.01.17 040 (СВ) 10 км    10/10 300 м 
[St]
+1.9 +0.6 91 +1  1012  -1.2  756  303           
00 09.01.17 080 (В) 4000 м  дымка  10/10 300 м 
[St]
+2.3 +0.8 90 +2  1012.4  0.4  757  302           
03 09.01.17 070 (В) 4000 м  дымка  10/10 300 м 
[St]
+2 +0.8 92 +1  1012.4  756  302  +1.1    0.6     
06 09.01.17 080 (В) 10 км    10/10 300 м 
[St]
+2.4 +0.4 87 +1  1014.3  1.9  758  303           
09 09.01.17 080 (В) 10 км    10/8 300 м средняя 
[St|As op]
+3.4 +0.5 81 +3  1014.7  0.4  758  302           
12 09.01.17 080 (В) 10 км    9/8 300 м средняя 
[St|Ac trans]
+4.2 +0.5 77 +4  1015.4  0.7  759  301           
15 09.01.17 060 (СВ) 10 км    10/4 300 м средняя 
[St|As trans]
+3.2 -0.2 78 +3  1016.5  1.1  760  303    +4.3       
18 09.01.17 060 (СВ) 10 км  в посл. час дождь  8/8 300 м 
[Frnb]
+2.9 -0.6 78 +2  1018  1.5  761  303           
21 09.01.17 тихо ()   10 км  {дождь}  10/10 300 м 
[St]
+2.8 -0.3 80 +3  1019.3  1.3  762  304           
00 10.01.17 060 (СВ) 10 км  {дождь}  10/10 1000 м 
[Sc]
+2.5 -0.8 79 +3  1020.6  1.2  763  305           
03 10.01.17 280 (З) 1000 м  слаб. морось  10/10 200 м 
[St]
+2.2 +0.8 90 +2  1022.1  1.5  764  305  +2.2    0.1     
06 10.01.17 270 (З) 10 км  {морось}  9/9 300 м 
[St]
+1.3 -0.6 87 +1  1024.5  2.4  766  307  +1.3         
09 10.01.17 240 (ЮЗ) 10 км    10/8 600 м средняя 
[Sc|Ac trans]
+2.2 -0.6 82 +2  1025.9  1.5  767  307           
12 10.01.17 330 (СЗ) 10 км    9/9 600 м 
[Sc]
+1.4 -1.5 81 +2  1025.8  -0.1  767  307           
15 10.01.17 070 (В) 4000 м  дымка  10/8 600 м средняя 
[Sc|Ac und]
+1.1 -1.3 84 +2  1026.1  0.3  767  308    +2.4  0.0     
18 10.01.17 060 (СВ) 4000 м  дымка  4/4 600 м 
[Sc]
+0.5 -1.8 85 1025.3  -0.8  766  308           
21 10.01.17 070 (В) 4000 м  дымка  ясно 
+0 -2.5 83 -1  1024.6  -0.8  766  309           
00 11.01.17 070 (В) 4000 м  дымка  ясно 
-0.2 -3 81 -1  1023.9  -0.7  765  309           
03 11.01.17 080 (В) 4000 м  дымка  ясно 
-0.6 -3.5 81 -1  1023.1  -0.7  764  309  -0.7         
06 11.01.17 070 (В) 4000 м  дымка  8/0 верхняя 
[Ci fib]
-0.6 -3.4 81 -2  1023.5  0.4  765  309  -1.2         
09 11.01.17 090 (В) 10 км    10/0 средняя, верхняя 
[Ac trans|Ci fib]
+1.6 -2 77 1023.3  -0.2  765  307           
12 11.01.17 080 (В) 10 км    10/0 верхняя 
[Ci fib]
+4.5 -0.7 69 +3  1023.2  -0.1  765  303           
15 11.01.17 тихо ()   10 км    10/8 1000 м средняя 
[Sc|Ac As]
+3.8 +0 76 +4  1025  1.8  766  304    +4.6       
18 11.01.17 080 (В) 10 км  {дождь}  10/8 1500 м кучево-дожд., средняя 
[Cb cap|Ac As]
+3.1 +0.7 84 +4  1025.9  0.9  767  305           
21 11.01.17 140 (ЮВ) 10 км    4/0 верхняя 
[Ci fib]
+4.1 +2.8 91 +5  1025.1  -0.8  766  304           
00 12.01.17 080 (В) 10 км    5/0 верхняя 
[Ci fib]
+2.3 +1.3 93 +3  1024  -1.1  765  306           
03 12.01.17 080 (В) 10 км    10/0 средняя, верхняя 
[Ac trans|Ci fib]
+2.3 -1.1 78 +2  1021.4  -2.6  763  305  +0.4    0.6     
06 12.01.17 080 (В) 10 км    8/3 1000 м средняя, верхняя 
[Sc|Ac trans|Ci fib]
+3 -3 65 +2  1019.3  -2.1  762  304           
09 12.01.17 080 (В) 10 км    9/0 средняя, верхняя 
[Ac trans|Ci fib]
+7.1 -1.2 56 +7  1015.8  -3.4  759  298           
12 12.01.17 070 (В) 10 км    10/6 1000 м средняя 
[Sc|Ac und]
+7.2 -0.3 59 +8  1012.6  -3.1  757  297           
15 12.01.17 тихо ()   10 км    9/8 1000 м средняя 
[Sc|Ac As]
+5.8 +0.2 67 +6  1010.8  -1.8  755  298    +7.4       
18 12.01.17 200 (Ю) 10 км    8/4 1000 м средняя, верхняя 
[Sc|Ac As|Ci fib]
+9 -1.4 48 +8  1010.5  -0.3  755  295           
21 12.01.17 260 (З) 3{12}  10 км  в посл. час ливневой дождь  10/10 300 м кучево-дожд. 
[Cb cap]
+2.4 +0.2 85 +1  1013.7  3.1  757  302           
00 13.01.17 250 (З) 10 км  {ливн. осадки}  3/3 300 м 
[St]
+0.4 -1 90 +1  1017  3.2  760  306           
03 13.01.17 200 (Ю) 10 км    10/10 300 м 
[St]
+0.8 -1.1 87 +1  1017.1  0.1  760  305  +0.3       
06 13.01.17 280 (З) 10 км    10/8 300 м средняя, верхняя 
[St|Ac trans|Ci fib]
+1.4 -0.5 87 +2  1017.9  0.8  761  305           
09 13.01.17 260 (З) 10 км  {снег}  10/6 600 м средняя, верхняя 
[Sc|Ac trans|Ci fib]
+1.8 -3 70 1020.1  2.1  762  305           
12 13.01.17 270 (З) 10 км  {снег}  5/0 средняя, верхняя 
[Ac trans|Cc]
+3.2 -6.4 49 +4  1020.9  0.8  763  305           
15 13.01.17 тихо ()   10 км    ясно 
+0.3 -4.6 70 1022.3  1.4  764  308    +3.8  0.0     
18 13.01.17 150 (ЮВ) 10 км    ясно 
-0.1 -3.3 79 +1  1022.7  0.4  764  308           
21 13.01.17 060 (СВ) 10 км    9/9 600 м 
[Sc]
+0.7 -2.3 80 +1  1021.9  -0.8  764  307           
00 14.01.17 080 (В) 10 км    ясно 
-0.6 -1.8 92 1021.2  -0.7  763  308           
03 14.01.17 090 (В) 10 км    10/0 средняя, верхняя 
[Ac trans|Ci fib]
-0.1 -1.6 90 -1  1020.7  -0.5  763  308  -1.1         
06 14.01.17 080 (В) 10 км    8/0 средняя 
[Ac trans]
-0.3 -2.2 87 -1  1019.7  -1  762  308           
09 14.01.17 070 (В) 10 км    6/0 средняя, верхняя 
[Ac trans|Cc]
+3.7 -2.6 63 +2  1017.7  -2  760  303           
12 14.01.17 080 (В) 10 км    8/3 1000 м средняя, верхняя 
[Sc|Ac trans|Cc]
+4.6 -2.4 60 +3  1016.2  -1.4  759  301           
15 14.01.17 080 (В) 10 км    8/3 1000 м средняя, верхняя 
[Sc|Ac trans|Ci fib]
+3.1 -2.5 67 +4  1016.4  0.1  759  303    +6       
18 14.01.17 070 (В) 10 км    9/0 средняя, верхняя 
[Ac trans|Ci]
+1.9 -2.4 73 +1  1015.7  -0.6  759  304           
21 14.01.17 070 (В) 10 км    5/0 верхняя 
[Ci fib]
+0 -3 80 -1  1015.5  -0.3  759  306           
00 15.01.17 070 (В) 10 км    9/0 средняя 
[Ac trans]
-0.7 -3.4 82 1015.2  -0.2  759  307           
03 15.01.17 070 (В) 10 км    3/0 верхняя 
[Ci sp]
-0.5 -3.3 81 1015.1  0.1  758  307  -0.9         
06 15.01.17 080 (В) 10 км    10/0 верхняя 
[Ci fib]
+0.1 -3 80 -1  1015.8  0.7  759  306  -1         
09 15.01.17 050 (СВ) 10 км    10/3 1000 м средняя, верхняя 
[Sc|Ac trans|Ci fib]
+3.5 -2 67 +4  1016  0.3  759  302           
12 15.01.17 050 (СВ) 10 км    10/3 1000 м средняя, верхняя 
[Sc|Ac trans|Ci fib]
+7 -0.8 58 +7  1016.2  0.2  759  298           
15 15.01.17 080 (В) 10 км    4/0 средняя, верхняя 
[Ac trans|Ci fib]
+4.3 -0.3 72 +4  1017.1  0.9  760  302    +7       
18 15.01.17 090 (В) 10 км    10/6 1000 м средняя, верхняя 
[Sc|Ac trans|Ci fib]
+3.8 -0.9 71 +5  1017.9  0.7  761  302           
21 15.01.17 110 (В) 10 км    6/0 верхняя 
[Ci fib]
+2.8 -1.3 74 +4  1018.9  761  304           
00 16.01.17 тихо ()   10 км    10/0 верхняя 
[Ci fib]
+2.1 -1.1 79 +2  1019.5  0.6  762  305           
03 16.01.17 080 (В) 10 км  {дождь}  10/6 1000 м верхняя 
[Sc|Ci fib]
+4.6 +1.3 79 +5  1019.9  0.4  762  302  +1.8    0.0     
06 16.01.17 тихо ()   10 км  в посл. час дождь  10/10 300 м 
[Frnb]
+4.1 +3.1 93 +4  1021.4  1.5  763  303           
09 16.01.17 210 (ЮЗ) 4000 м  дымка{дождь}  10/10 300 м 
[Frnb]
+5.2 +4.1 93 +6  1022.2  0.8  764  301           
12 16.01.17 290 (З) 10 км  {дождь}  9/9 1000 м 
[Sc]
+6.3 +4.5 88 +7  1022.2  764  300           
15 16.01.17 020 (С) 1000 м  дымка  10/10 200 м 
[St]
+4.6 +3.5 93 +5  1022.6  0.3  764  302    +6.4     
18 16.01.17 010 (С) 0500 м  туман  н/о 
+3.7 +2.8 94 +5  1022.3  -0.3  764  303           
21 16.01.17 360 (С) 0200 м  туман  н/о 
+3.1 +2.2 94 +4  1022.9  0.5  764  304           
00 17.01.17 тихо ()   0200 м  слаб. дождь{туман}  н/о 
+3 +1.9 92 +3  1023.7  0.8  765  305           
03 17.01.17 080 (В) 4000 м  дымка{дождь, туман}  10/10 200 м 
[St]
+2.3 +0.6 88 +2  1022.9  -0.7  764  305  +2.3    0.9     
06 17.01.17 060 (СВ) 4000 м  дымка{дождь}  10/8 300 м средняя 
[St|Ac und]
+2.3 +0.2 86 +2  1024.3  1.4  765  306  +2.1         
09 17.01.17 040 (СВ) 4000 м  дымка  10/6 1000 м средняя 
[Sc|Ac und]
+3.6 +0.6 81 +3  1024.2  0.1  765  304           
12 17.01.17 100 (В) 10 км  {ливн. осадки}  10/6 1000 м кучево-дожд., средняя 
[Cb cap|Ac und]
+4.2 +1.8 84 +4  1024.2  765  303           
15 17.01.17 050 (СВ) 10 км    9/5 300 м средняя 
[St|Ac trans]
+3.8 +1.5 85 +3  1025.2  766  304    +4.4  0.8     
18 17.01.17 040 (СВ) 10 км    10/8 1000 м верхняя 
[Sc|Ci fib]
+3.2 +1.4 88 +3  1025.3  0.2  766  305           
21 17.01.17 040 (СВ) 10 км    10/8 300 м средняя 
[St|Ac und]
+2.8 +1.1 89 +4  1025  -0.3  766  305           
00 18.01.17 030 (СВ) 4000 м  дымка  10/10 600 м 
[Sc]
+2.7 +0.9 88 +3  1025.7  0.7  766  306           
03 18.01.17 030 (СВ) 4000 м  дымка  10/10 1000 м 
[Sc]
+2.3 +0.6 88 +2  1025.1  -0.6  766  306  +2.3         
06 18.01.17 030 (СВ) 10 км    10/10 600 м 
[Sc]
+2.3 +0.3 87 +3  1026.1  767  306  +2.1         
09 18.01.17 050 (СВ) 10 км    10/10 600 м кучево-дожд. 
[Cb cap]
+3.6 +0.5 80 +3  1026.3  0.2  767  305           
12 18.01.17 040 (СВ) 10 км  {дождь}  10/10 300 м 
[St]
+4.3 +0.9 79 +4  1026.2  -0.1  767  304           
15 18.01.17 060 (СВ) 4-10{10}  10 км    10/10 300 м 
[St]
+3.3 -0.5 76 +1  1027.4  1.2  768  306    +4.6  0.0     
18 18.01.17 030 (СВ) 3{10}  10 км    10/10 300 м 
[St]
+1.4 -1.2 83 1028.5  1.1  769  308           
21 18.01.17 040 (СВ) 2{10}  10 км    10/10 300 м 
[St]
+0.5 -1.9 84 1029.2  0.7  769  310           
00 19.01.17 040 (СВ) 3{11}  10 км    10/10 300 м 
[St]
-0.8 -3.4 83 -3  1030.2  0.9  770  311           
03 19.01.17 040 (СВ) 10 км    10/10 300 м 
[St]
-1.4 -4.2 81 -3  1031  0.8  770  313  -1.4         
06 19.01.17 030 (СВ) 10 км    10/10 300 м 
[St]
-1.9 -4.7 81 -4  1032.5  1.5  771  314  -1.9         
09 19.01.17 030 (СВ) 10 км    10/10 300 м 
[St]
-1.4 -4.6 79 -2  1032.9  0.3  772  313           
12 19.01.17 040 (СВ) 10 км    10/10 300 м 
[St]
-1.2 -4.7 77 -3  1032.1  -0.7  771  313           
15 19.01.17 070 (В) 10 км    10/10 300 м 
[St]
-1.9 -5.2 78 -3  1032.9  0.8  772  314    -1       
18 19.01.17 030 (СВ) 10 км    10/10 300 м 
[St]
-2.5 -5.3 81 -4  1033  772  315           
21 19.01.17 040 (СВ) 10 км    10/10 300 м 
[St]
-3.4 -6.1 82 -5  1032.8  -0.2  772  316           
00 20.01.17 040 (СВ) 10 км    10/10 300 м 
[St]
-3.9 -6.3 83 -5  1032.7  0.1  772  316           
03 20.01.17 040 (СВ) 10 км    10/10 300 м 
[St]
-4.4 -6.6 85 -4  1031.8  -0.9  771  316  -4.5         
06 20.01.17 060 (СВ) 4000 м  снежные зёрна  10/10 300 м 
[St]
-4.5 -6.9 83 -4  1032.5  0.6  771  317  -4.6         
09 20.01.17 090 (В) 10 км  {снег}  10/10 300 м 
[St]
-3.5 -7.4 74 -3  1032  -0.4  771  316           
12 20.01.17 330 (СЗ) 10 км  {снег}  10/10 300 м 
[St]
-3.5 -7.2 75 -3  1030.4  -1.6  770  315           
15 20.01.17 280 (З) 10 км    10/10 300 м 
[St]
-4 -7.3 78 -5  1030.5  0.1  770  316    -2.9  0.2     
18 20.01.17 260 (З) 10 км    10/10 300 м 
[St]
-4.6 -8.6 74 -6  1030.9  0.3  770  317           
21 20.01.17 260 (З) 10 км    1/1 300 м 
[St]
-5.4 -8.4 79 -7  1030  0.3  770  317           
00 21.01.17 230 (ЮЗ) 10 км    ясно 
-5.3 -8.1 81 -7  1029.6  -0.4  769  317           
03 21.01.17 220 (ЮЗ) 10 км    5/5 1000 м 
[]
-3.9 -9.6 65 -5  1028.2  -1.4  768  315  -5.6         
06 21.01.17 220 (ЮЗ) 10 км    10/5 1000 м средняя, верхняя 
[Sc|Ac trans|Ci fib]
-2.1 -8.7 61 -2  1028.1  0.1  768  313           
09 21.01.17 240 (ЮЗ) 10 км    10/4 1000 м средняя 
[Sc|As op]
+1.8 -5 61 +1  1027  -1.1  767  308           
12 21.01.17 240 (ЮЗ) 10 км    10/9 1000 м средняя 
[Sc|Ac und]
+2.5 -3.2 66 +2  1025  -2  766  306           
15 21.01.17 220 (ЮЗ) 10 км    10/10 600 м 
[Sc]
+3.7 -4 57 +2  1024.6  -0.4  766  305    +4       
18 21.01.17 260 (З) 10 км  слаб. снег  10/10 200 м 
[Frnb]
+0.3 -2 85 -2  1024.9  0.3  766  309           
21 21.01.17 260 (З) 4000 м  слаб. снег  10/10 200 м 
[Frnb]
-0.7 -2.2 90 -3  1026.1  1.1  767  310           
00 22.01.17 260 (З) 10 км  {снег}  10/10 300 м 
[St]
-0 -1.9 87 -2  1026.2  0.2  767  309           
03 22.01.17 260 (З) 10 км    10/10 300 м 
[St]
+0.1 -1.8 87 -2  1027  0.7  767  309  -0.7    0.7  <0.5  равномерный
сухой снег
100% 
06 22.01.17 260 (З) 4000 м  снежные зёрна  10/10 300 м 
[St]
+0.3 -0.8 92 1029.3  2.3  769  310           
09 22.01.17 290 (З) 10 км  {снег}  8/8 300 м 
[St]
+1.9 -1.1 80 +3  1030.5  1.3  770  308           
12 22.01.17 280 (З) 10 км    3/3 600 м 
[Sc]
+3.7 -4.3 56 +3  1030.6  770  307           
15 22.01.17 230 (ЮЗ) 10 км    6/6 1000 м 
[Sc]
+1.7 -3 71 +1  1032  1.4  771  309    +4.4  0.2     
18 22.01.17 260 (З) 10 км    3/3 1000 м 
[Sc]
+0 -3.6 77 +1  1033.2  1.2  772  312           
21 22.01.17 250 (З) 10 км    ясно 
-1.9 -5.1 79 -1  1034.3  1.1  773  314           
00 23.01.17 260 (З) 10 км    ясно 
-2.5 -4.9 84 -2  1034.3  0.1  773  315           
03 23.01.17 220 (ЮЗ) 10 км    ясно 
-3.2 -4.7 89 -4  1034.4  0.1  773  316  -3.4         
06 23.01.17 220 (ЮЗ) 10 км    3/3 1000 м верхняя 
[Sc|Ci fib]
-2.3 -5.6 78 -2  1035  0.6  773  315  -3.6         
09 23.01.17 260 (З) 10 км    3/3 1000 м 
[Sc]
+3 -10.8 35 +2  1034.6  -0.4  773  309           
12 23.01.17 270 (З) 10 км    3/3 1000 м 
[Sc]
+5.3 -11.7 28 +5  1032.9  -1.6  772  306           
15 23.01.17 290 (З) 10 км    ясно 
+2.1 -9.1 43 +3  1032.5  -0.4  772  309    +5.4       
18 23.01.17 тихо ()   10 км    ясно 
-1.1 -7.4 62 -1  1032.4  -0.2  771  313           
21 23.01.17 тихо ()   10 км    ясно 
-2.9 -6.4 77 -3  1031.3  -1.1  771  315           
00 24.01.17 тихо ()   10 км    ясно 
-4.7 -6.7 86 -5  1029.9  -1.4  770  316           
03 24.01.17 070 (В) 4000 м  дымка  ясно 
-4.5 -6.1 89 -4  1027.7  -2.2  768  315  -5         
06 24.01.17 070 (В) 10 км    ясно 
-1 -4 80 1026.7  -0.9  767  311           
09 24.01.17 080 (В) 10 км    ясно 
+5.5 -3.7 51 +6  1024.6  -2  766  303           
12 24.01.17 080 (В) 10 км    4/0 верхняя 
[Ci]
+6.5 -2.5 53 +7  1021.6  -3  763  301           
15 24.01.17 070 (В) 10 км    4/0 верхняя 
[Ci fib]
+3.4 -1.4 71 +4  1020.3  -1.4  762  304    +7.6       
18 24.01.17 110 (В) 10 км    10/0 средняя 
[Ac und]
+3.3 -1.7 70 +4  1019.1  -1.1  762  303           
21 24.01.17 130 (ЮВ) 10 км    10/8 300 м средняя 
[St|Ac und]
+3.1 -3.3 63 +3  1018.4  -0.7  761  304           
00 25.01.17 тихо ()   10 км  {дождь}  10/10 600 м 
[Sc]
+2.7 -2.9 67 +3  1017.1  -1.3  760  304           
03 25.01.17 260 (З) 10 км    10/10 600 м 
[Sc]
+2.2 -0.7 81 +2  1016.6  -0.5  760  304  +2.1    0.0     
06 25.01.17 310 (СЗ) 10 км    9/9 300 м 
[St]
+0.9 -1.8 82 1017  0.3  760  305  +0.9         
09 25.01.17 280 (З) 10 км  в посл. час снег  9/9 600 м 
[Sc]
+2.2 -3.4 66 +2  1016.1  -0.8  759  304           
12 25.01.17 280 (З) 10 км  в посл. час снег  10/10 600 м кучево-дожд. 
[Cb cap]
+2.2 -2.7 70 +2  1014.4  -1.7  758  303           
15 25.01.17 290 (З) 4000 м  слаб. снег  10/10 300 м 
[St]
-0.4 -3.2 81 -2  1014.9  0.5  758  306    +2.5  0.0     
18 25.01.17 280 (З) 10 км  {снег}  10/10 300 м 
[St]
-1.2 -4.9 76 -2  1015.4  0.5  759  308           
21 25.01.17 210 (ЮЗ) 4000 м  слаб. снег  10/10 600 м 
[Sc]
-1.2 -4.6 78 -2  1015.8  0.4  759  308           
00 26.01.17 260 (З) 4000 м  слаб. снег  10/10 300 м 
[St]
-0.9 -3.2 84 -2  1016.1  0.3  759  307           
03 26.01.17 290 (З) 10 км  в посл. час снег  10/10 300 м 
[Frnb|Ns]
-0.6 -2.1 90 -1  1017  0.9  760  307  -1.4    0.9  равномерный
сухой снег
100% 
06 26.01.17 320 (СЗ) 10 км  {снег}  10/10 300 м 
[St]
-2.5 -5.7 79 -5  1018.9  1.8  761  310  -2.5         
09 26.01.17 300 (СЗ) 4000 м  слаб. снег  10/8 300 м средняя 
[Frnb|As op]
-2.9 -6.3 77 -5  1020.2  1.3  762  311           
12 26.01.17 310 (СЗ) 10 км  {снег}  8/8 600 м 
[Sc]
-2 -8.3 62 -3  1020.6  0.5  763  310           
15 26.01.17 290 (З) 10 км  {снег}  6/6 300 м 
[St]
-3.2 -6.3 79 -4  1022.2  1.5  764  312    -0.6       
18 26.01.17 310 (СЗ) 10 км  {снег}  10/10 300 м 
[St]
-3.7 -6.7 80 -5  1024.1  1.9  765  313           
21 26.01.17 320 (СЗ) 10 км  в посл. час снег  10/10 300 м 
[St]
-4.6 -8 77 -6  1025.4  1.3  766  315           
00 27.01.17 280 (З) 10 км  {снег}  10/10 300 м 
[St]
-5.1 -8.4 78 -5  1025.4  766  315           
03 27.01.17 300 (СЗ) 10 км  слаб. снег  10/8 600 м средняя 
[Sc|Ac und]
-5.5 -9 76 -5  1025  -0.4  766  316  -5.5    0.3  равномерный
сухой снег
100% 
06 27.01.17 310 (СЗ) 4000 м  слаб. снег  10/8 300 м средняя 
[Frnb|Ac und]
-6.2 -9.8 76 -8  1024.9  0.1  766  317  -6.2         
09 27.01.17 310 (СЗ) 10 км  {снег}  9/9 600 м 
[Sc]
-5.3 -10.4 67 -7  1024.8  0.1  766  316           
12 27.01.17 330 (СЗ) 10 км  {снег}  9/9 600 м средняя 
[Sc|Ac trans]
-4.5 -10.3 64 -4  1023.5  -1.4  765  314           
15 27.01.17 тихо ()   10 км    10/0 средняя 
[Ac und]
-5.9 -11 67 -6  1023.4  0.1  765  316    -4.3  0.0     
18 27.01.17 070 (В) 10 км    9/0 верхняя 
[Ci sp]
-6.8 -10.8 73 -6  1023.8  0.4  765  317           
21 27.01.17 060 (СВ) 10 км    3/0 средняя, верхняя 
[Ac trans|Ci sp]
-8.1 -11 80 -8  1024.6  0.8  766  319           
00 28.01.17 060 (СВ) 10 км    ясно 
-9.3 -11.9 81 -9  1024.6  0.1  765  320           
03 28.01.17 110 (В) 4000 м  дымка  1/0 верхняя 
[Ci sp]
-10.3 -12.1 87 -10  1024.5  0.1  765  322  -10.6      <0.5  сухой снег
50-90% 
06 28.01.17 070 (В) 2000 м  дымка  10/10 200 м 
[St]
-9.9 -11.5 88 -10  1026.2  1.6  767  322  -11.3         
09 28.01.17 020 (С) 4000 м  дымка  8/8 600 м 
[Sc]
-5.8 -10 72 -5  1026.2  0.1  767  317           
Время (UTC), дата Ветер
(°,м/с) 
Видим.   Явления Облачность Т
(°С)
Тd
(°С)
f(%) Тe
(°С)
Pmin
(гПа)
dP
(гПа)
Po
(мм)
O2
(г/м3)
Тmin Tmax R s Состояние
почвы